When you browse on this site, cookies collect data to enhance your experience and personalize the content and advertising you see.
Visit our Privacy Policy to learn more. By continuing to use the site, you agree to this use of cookies and data.
  • In Romania
  • List of Countries
  • For 7 days
  • Water Temperature
  • Satellite Maps
  • Weather Map
  • Weather Widgets
  • user-avatar
    Login

    Hourly Weather Arnara

    Today, 22 April, Monday

    Time Temperature Precipitation Wind Pressure Humidity
    00:00 +15°C° 0 mm 2 mps 743 mmHg 61%
    01:00 +14°C° 0 mm 2 mps 743 mmHg 60%
    02:00 +14°C° 0 mm 2 mps 742 mmHg 58%
    03:00 +14°C° 0 mm 2 mps 742 mmHg 56%
    04:00 +13°C° 0 mm 3 mps 741 mmHg 54%
    05:00 +13°C° 0 mm 3 mps 741 mmHg 55%
    06:00 +14°C° 0 mm 3 mps 740 mmHg 56%
    07:00 +16°C° 0 mm 3 mps 740 mmHg 57%
    08:00 +18°C° 0 mm 4 mps 740 mmHg 51%
    09:00 +21°C° 0 mm 5 mps 739 mmHg 45%
    10:00 +23°C° 0 mm 5 mps 739 mmHg 40%
    11:00 +22°C° 0.2 mm 5 mps 739 mmHg 47%
    12:00 +21°C° 0.2 mm 5 mps 738 mmHg 55%
    13:00 +19°C° 0.2 mm 5 mps 738 mmHg 62%
    14:00 +19°C° 0.9 mm 4 mps 737 mmHg 69%
    15:00 +18°C° 0.9 mm 3 mps 737 mmHg 76%
    16:00 +17°C° 0.9 mm 2 mps 736 mmHg 83%
    17:00 +16°C° 0.5 mm 2 mps 736 mmHg 85%
    18:00 +16°C° 0.5 mm 2 mps 735 mmHg 87%
    19:00 +15°C° 0.5 mm 2 mps 735 mmHg 88%
    20:00 +15°C° 0.2 mm 2 mps 735 mmHg 89%
    21:00 +15°C° 0.2 mm 2 mps 735 mmHg 89%
    22:00 +14°C° 0.2 mm 2 mps 735 mmHg 90%
    23:00 +14°C° 0.1 mm 2 mps 735 mmHg 91%

    Tomorrow, 23 April, Tuesday

    Time Temperature Precipitation Wind Pressure Humidity
    00:00 +14°C° 0.1 mm 2 mps 735 mmHg 91%
    01:00 +12°C° 0.1 mm 3 mps 734 mmHg 92%
    02:00 +13°C° 0 mm 3 mps 734 mmHg 92%
    03:00 +13°C° 0 mm 3 mps 734 mmHg 92%
    04:00 +13°C° 0 mm 3 mps 734 mmHg 92%
    05:00 +13°C° 0.1 mm 3 mps 735 mmHg 91%
    06:00 +13°C° 0.1 mm 3 mps 735 mmHg 91%
    07:00 +14°C° 0.1 mm 3 mps 735 mmHg 91%
    08:00 +14°C° 0.3 mm 3 mps 736 mmHg 92%
    09:00 +14°C° 0.3 mm 3 mps 736 mmHg 92%
    10:00 +15°C° 0.3 mm 4 mps 737 mmHg 93%
    11:00 +15°C° 0.7 mm 4 mps 737 mmHg 91%
    12:00 +17°C° 0.7 mm 4 mps 737 mmHg 88%
    13:00 +17°C° 0.7 mm 4 mps 738 mmHg 86%
    14:00 +17°C° 0.7 mm 3 mps 738 mmHg 85%
    15:00 +17°C° 0.7 mm 3 mps 738 mmHg 85%
    16:00 +17°C° 0.7 mm 3 mps 738 mmHg 84%
    17:00 +16°C° 0.2 mm 3 mps 739 mmHg 88%
    18:00 +15°C° 0.2 mm 2 mps 739 mmHg 92%
    19:00 +14°C° 0.2 mm 2 mps 740 mmHg 96%
    20:00 +14°C° 0 mm 2 mps 740 mmHg 96%
    21:00 +14°C° 0 mm 2 mps 741 mmHg 97%
    22:00 +13°C° 0 mm 1 mps 742 mmHg 97%
    23:00 +13°C° 0 mm 1 mps 742 mmHg 96%

    Day after tomorrow, 24 April, Wednesday

    Time Temperature Precipitation Wind Pressure Humidity
    00:00 +14°C° 0 mm 1 mps 743 mmHg 96%
    01:00 +14°C° 0 mm 1 mps 743 mmHg 95%
    02:00 +13°C° 0 mm 2 mps 743 mmHg 94%
    03:00 +13°C° 0 mm 2 mps 743 mmHg 92%
    04:00 +12°C° 0 mm 2 mps 743 mmHg 90%
    05:00 +14°C° 0 mm 2 mps 743 mmHg 86%
    06:00 +15°C° 0 mm 2 mps 743 mmHg 82%
    07:00 +16°C° 0 mm 2 mps 743 mmHg 79%
    08:00 +18°C° 0 mm 2 mps 744 mmHg 68%
    09:00 +21°C° 0 mm 2 mps 744 mmHg 57%
    10:00 +24°C° 0 mm 2 mps 744 mmHg 47%
    11:00 +25°C° 0 mm 2 mps 744 mmHg 45%
    12:00 +26°C° 0 mm 2 mps 744 mmHg 42%
    13:00 +27°C° 0 mm 2 mps 744 mmHg 40%
    14:00 +27°C° 0 mm 2 mps 744 mmHg 41%
    15:00 +27°C° 0 mm 2 mps 744 mmHg 41%
    16:00 +27°C° 0 mm 2 mps 743 mmHg 42%
    17:00 +24°C° 0 mm 2 mps 743 mmHg 46%
    18:00 +21°C° 0 mm 2 mps 743 mmHg 51%
    19:00 +20°C° 0 mm 1 mps 743 mmHg 55%
    20:00 +19°C° 0 mm 2 mps 744 mmHg 56%
    21:00 +18°C° 0 mm 2 mps 744 mmHg 57%
    22:00 +18°C° 0 mm 2 mps 744 mmHg 57%
    23:00 +18°C° 0 mm 2 mps 744 mmHg 57%

    25 April, Thursday

    Time Temperature Precipitation Wind Pressure Humidity
    00:00 +18°C° 0 mm 2 mps 744 mmHg 57%
    01:00 +18°C° 0 mm 2 mps 744 mmHg 57%
    02:00 +19°C° 0 mm 1 mps 744 mmHg 57%
    03:00 +19°C° 0 mm 1 mps 744 mmHg 57%
    04:00 +18°C° 0 mm 1 mps 744 mmHg 57%
    05:00 +19°C° 0 mm 1 mps 744 mmHg 60%
    06:00 +20°C° 0 mm 1 mps 744 mmHg 63%
    07:00 +20°C° 0 mm 1 mps 744 mmHg 66%
    08:00 +22°C° 0 mm 1 mps 744 mmHg 62%
    09:00 +23°C° 0 mm 1 mps 745 mmHg 58%
    10:00 +25°C° 0 mm 1 mps 745 mmHg 53%
    11:00 +25°C° 0 mm 2 mps 745 mmHg 54%
    12:00 +26°C° 0 mm 2 mps 745 mmHg 55%
    13:00 +26°C° 0 mm 3 mps 745 mmHg 56%
    14:00 +26°C° 0 mm 3 mps 745 mmHg 58%
    15:00 +25°C° 0 mm 2 mps 744 mmHg 59%
    16:00 +25°C° 0 mm 2 mps 744 mmHg 61%
    17:00 +23°C° 0 mm 2 mps 744 mmHg 70%
    18:00 +21°C° 0 mm 1 mps 745 mmHg 79%
    19:00 +19°C° 0 mm 1 mps 745 mmHg 89%
    20:00 +18°C° 0 mm 1 mps 745 mmHg 89%
    21:00 +16°C° 0 mm 1 mps 745 mmHg 90%
    22:00 +16°C° 0 mm 1 mps 746 mmHg 91%
    23:00 +16°C° 0 mm 1 mps 746 mmHg 89%

    26 April, Friday

    Time Temperature Precipitation Wind Pressure Humidity
    00:00 +14°C° 0 mm 0 mps 746 mmHg 88%
    01:00 +14°C° 0 mm 0 mps 746 mmHg 87%
    02:00 +15°C° 0 mm 1 mps 746 mmHg 88%
    03:00 +15°C° 0 mm 1 mps 746 mmHg 88%
    04:00 +14°C° 0 mm 1 mps 746 mmHg 88%
    05:00 +16°C° 0 mm 1 mps 746 mmHg 85%
    06:00 +18°C° 0 mm 1 mps 746 mmHg 82%
    07:00 +19°C° 0 mm 1 mps 746 mmHg 79%
    08:00 +19°C° 0 mm 2 mps 746 mmHg 69%
    09:00 +20°C° 0 mm 2 mps 747 mmHg 58%
    10:00 +22°C° 0 mm 3 mps 747 mmHg 48%
    11:00 +22°C° 0 mm 3 mps 747 mmHg 48%
    12:00 +22°C° 0 mm 3 mps 747 mmHg 48%
    13:00 +24°C° 0 mm 3 mps 747 mmHg 47%
    14:00 +22°C° 0 mm 4 mps 747 mmHg 49%
    15:00 +22°C° 0 mm 4 mps 746 mmHg 51%
    16:00 +21°C° 0 mm 5 mps 746 mmHg 53%
    17:00 +19°C° 0 mm 4 mps 746 mmHg 61%
    18:00 +17°C° 0 mm 3 mps 746 mmHg 69%
    19:00 +15°C° 0 mm 2 mps 746 mmHg 77%
    20:00 +14°C° 0 mm 2 mps 747 mmHg 81%
    21:00 +12°C° 0 mm 1 mps 747 mmHg 85%
    22:00 +10°C° 0 mm 0 mps 747 mmHg 89%
    23:00 +11°C° 0 mm 1 mps 747 mmHg 88%

    27 April, Saturday

    Time Temperature Precipitation Wind Pressure Humidity
    00:00 +11°C° 0 mm 1 mps 747 mmHg 87%
    01:00 +11°C° 0 mm 1 mps 747 mmHg 85%
    02:00 +11°C° 0 mm 1 mps 747 mmHg 82%
    03:00 +10°C° 0 mm 1 mps 747 mmHg 78%
    04:00 +9°C° 0 mm 2 mps 747 mmHg 75%
    05:00 +12°C° 0 mm 2 mps 747 mmHg 71%
    06:00 +13°C° 0 mm 1 mps 747 mmHg 67%
    07:00 +14°C° 0 mm 1 mps 747 mmHg 63%
    08:00 +16°C° 0 mm 2 mps 747 mmHg 57%
    09:00 +17°C° 0 mm 3 mps 747 mmHg 51%
    10:00 +19°C° 0 mm 3 mps 747 mmHg 46%
    11:00 +20°C° 0 mm 4 mps 748 mmHg 45%
    12:00 +20°C° 0 mm 4 mps 748 mmHg 44%
    13:00 +21°C° 0 mm 5 mps 748 mmHg 43%
    14:00 +21°C° 0.1 mm 5 mps 748 mmHg 42%
    15:00 +21°C° 0.1 mm 4 mps 748 mmHg 42%
    16:00 +21°C° 0.1 mm 4 mps 748 mmHg 42%
    17:00 +19°C° 0 mm 3 mps 748 mmHg 48%
    18:00 +17°C° 0 mm 3 mps 748 mmHg 55%
    19:00 +15°C° 0 mm 2 mps 748 mmHg 62%
    20:00 +14°C° 0 mm 2 mps 749 mmHg 63%
    21:00 +13°C° 0 mm 2 mps 749 mmHg 64%
    22:00 +12°C° 0 mm 2 mps 750 mmHg 65%
    23:00 +12°C° 0 mm 2 mps 750 mmHg 64%
    Show more